This demonstration page uses our WeatherBlox Daily Observations layout. Learn more.

Left ArrowRight Arrow

Hourly Observations for April 30, 2021

Temp ( °F °C ) Dew Point ( °F °C ) Humidity (%) Winds ( mph kmh ) Pressure ( in mb ) Visibility ( mi km ) Precip ( " mm )
12:53 am 00:53 Clear 54 12.2 33 0.6 45 45 S 5 7 30.19 1023 10 16 0.00 0.00
1:53 am 01:53 Clear 49 9.4 34 1.1 56 56 SSW 6 9 30.19 1023 10 16 0.00 0.00
2:53 am 02:53 Clear 50 10 34 1.1 54 54 SW 5 7 30.19 1022 10 16 0.00 0.00
3:53 am 03:53 Clear 49 9.4 33 0.6 55 55 WSW 5 7 30.18 1022 10 16 0.00 0.00
4:53 am 04:53 Clear 46 7.8 34 1.1 63 63 Calm 30.19 1022 10 16 0.00 0.00
5:53 am 05:53 Clear 46 7.8 34 1.1 63 63 WSW 8 13 30.19 1022 10 16 0.00 0.00
6:53 am 06:53 Sunny 45 7.2 34 1.1 66 66 WSW 7 11 30.20 1023 10 16 0.00 0.00
7:53 am 07:53 Sunny 51 10.6 36 2.2 56 56 SW 6 9 30.20 1023 10 16 0.00 0.00
8:53 am 08:53 Sunny 57 13.9 38 3.3 49 49 WSW 8 13 30.20 1023 10 16 0.00 0.00
9:53 am 09:53 Sunny 68 20 39 3.9 35 35 SW 10 17 30.17 1022 10 16 0.00 0.00
10:53 am 10:53 Sunny 73 22.8 40 4.4 30 30 W 20 31 30.16 1021 10 16 0.00 0.00
11:53 am 11:53 Sunny 78 25.6 43 6.1 29 29 W 14 22 30.14 1021 10 16 0.00 0.00
12:53 pm 12:53 Sunny 81 27.2 44 6.7 27 27 WNW 15 24 30.11 1020 10 16 0.00 0.00
1:53 pm 13:53 Sunny 83 28.3 42 5.6 24 24 WNW 9 15 30.09 1019 10 16 0.00 0.00
2:53 pm 14:53 Mostly Sunny 83 28.3 44 6.7 25 25 SW 15 24 30.06 1018 10 16 0.00 0.00
3:53 pm 15:53 Mostly Cloudy 82 27.8 41 5 23 23 SSW 10 17 30.04 1017 10 16 0.00 0.00
4:53 pm 16:53 Partly Cloudy 84 28.9 42 5.6 23 23 SW 9 15 30.02 1017 10 16 0.00 0.00
5:53 pm 17:53 Sunny 83 28.3 41 5 23 23 SW 12 19 30.01 1016 10 16 0.00 0.00
6:53 pm 18:53 Sunny 81 27.2 38 3.3 21 21 SW 14 22 29.99 1016 10 16 0.00 0.00
7:53 pm 19:53 Sunny 79 26.1 37 2.8 22 22 SSW 15 24 29.98 1015 10 16 0.00 0.00
8:53 pm 20:53 Clear 74 23.3 38 3.3 27 27 SSW 10 17 29.97 1015 10 16 0.00 0.00
9:53 pm 21:53 Clear 71 21.7 39 3.9 31 31 SSW 13 20 29.96 1015 10 16 0.00 0.00
10:53 pm 22:53 Clear 69 20.6 39 3.9 33 33 SSW 15 24 29.96 1015 10 16 0.00 0.00
11:53 pm 23:53 Clear 67 19.4 38 3.3 35 35 SSW 13 20 29.94 1014 10 16 0.00 0.00

Powered by AerisWeather